OKEAN-0
1 25860U 99039A 11293.49010240 .00000802 00000-0 12982-3 0 4436
2 25860 097.9009 256.6051 0000975 042.4840 317.6444 14.73883068659114
NOAA-16
1 26536U 00055A 11292.80620436 .00000158 00000-0 11041-3 0 04715
2 26536 099.1288 325.8133 0011106 045.8012 314.4075 14.12654588570959
NOAA-17
1 27453U 02032A 11292.65905608 .00000102 00000-0 61832-4 0 04556
2 27453 098.3666 326.5758 0012285 141.1561 219.0506 14.24328068484371
NOAA-18
1 28654U 05018A 11292.64620505 .00000429 00000-0 26111-3 0 09339
2 28654 099.0123 244.1852 0015112 113.7695 246.5074 14.11530600330486
NOAA-19
1 33591U 09005A 11292.67098614 .00000554 00000-0 33114-3 0 01240
2 33591 098.8375 230.7869 0013970 347.5544 012.5256 14.11222571138942
HUBBLE
1 20580U 90037B 11292.35114966 .00002871 00000-0 20330-3 0 08543
2 20580 028.4708 285.2475 0003015 005.0192 355.0835 15.01644613978335
ISS
1 25544U 98067A 11292.96119193 .00023594 00000-0 29146-3 0 02726
2 25544 051.6398 252.6197 0019187 333.4224 098.8584 15.59806961740398
CO-58
1 28895U 05043F 11292.64690769 .00001204 00000-0 25830-3 0 29
2 28895 097.9472 164.0979 0017678 186.2705 173.8269 14.60228535318404
FALCON
1 30776U 07006E 11292.50589563 .00005521 00000-0 38104-3 0 1963
2 30776 035.4334 310.8019 0001389 068.0135 292.0728 15.05275862253789
MAST
1 31126U 07012K 11293.64443729 .00000762 00000-0 18085-3 0 2889
2 31126 097.8877 313.7389 0094986 139.6192 221.2081 14.53841895239314
CAPE1
1 31130U 07012P 11293.81548469 .00000568 00000-0 14014-3 0 3007
2 31130 097.8922 310.4931 0102742 150.4490 210.2550 14.52513096238876
COMPASS
1 32787U 08021E 11292.66597363 .00003248 00000-0 40736-3 0 01226
2 32787 097.8348 354.0904 0016352 127.3195 232.9551 14.82779459188008
AAUSAT2
1 32788U 08021F 11292.61325061 .00004074 00000-0 50655-3 0 01146
2 32788 097.8345 354.3056 0016317 128.1236 232.1450 14.82995502188013
DO-64
1 32789U 08021G 11293.25120120 .00005353 00000-0 65270-3 0 1271
2 32789 097.8446 356.1925 0016004 124.7018 235.5704 14.83683276188128
CO-66
1 32791U 08021J 11293.72291200 .00002321 00000-0 29549-3 0 1163
2 32791 097.8365 355.0217 0016890 123.7601 236.5226 14.82415369188106
RS-30
1 32953U 08025A 11293.79056131 .00000010 00000-0 00000 0 0 1863
2 32953 082.4981 084.6274 0019593 111.8585 248.4582 12.43016025154695
TACSAT-3
1 35001U 09028A 11292.95472701 .00056865 00000-0 81581-3 0 07318
2 35001 040.4515 132.5781 0015119 052.7420 307.4777 15.55089473136466
PHARMSAT
1 35002U 09028B 11293.56808109 .00042960 00000-0 65628-3 0 6798
2 35002 040.4680 127.7195 0018374 069.0059 291.2752 15.53402527136572
HAWKSAT1
1 35003U 09028C 11278.76493853 .05638703 71200-5 11831-2 0 08211
2 35003 040.4370 161.0594 0006849 275.9761 084.3784 16.29831142134897
CP6
1 35004U 09028D 11247.64656856 .16152067 73217-5 10011-2 0 7842
2 35004 040.4403 342.9642 0002956 038.0069 322.2231 16.41039951130139
METEOR-M
1 35865U 09049A 11293.76389016 .00000010 00000-0 24355-4 0 8291
2 35865 098.6913 347.1674 0003259 037.5508 322.5903 14.21842586108435
RS-38
1 35869U 09049E 11293.74822055 .00000079 00000-0 55486-4 0 8090
2 35869 098.6888 347.1793 0005272 035.3593 324.7938 14.22026513108447
ARISSAT1
1 37772U 98067CK 11293.77958782 .00117600 00000-0 98348-3 0 2370
2 37772 051.6376 246.8092 0007741 008.0200 066.5222 15.69099575 12121
SRMSAT
1 37839U 11058B 11292.62968901 .00000619 00000-0 19019-3 0 104
2 37839 019.9628 021.5381 0019280 083.5148 276.7407 14.11974518 1056
JUGNU
1 37841U 11058D 11293.55958539 .00000264 00000-0 00000 0 0 96
2 37841 019.9730 016.0842 0011653 070.6290 289.5438 14.10074334 1181
